contact:dominique.lefevre@mio.osupytheas.fr, maurice.libes@osupytheas.fr, didier.mallarino@osupytheas.fr
Project:EMSO http://www.emso-fr.org/EMSO-France
Depth: 2436.0 m
Title:EMSO Ligure Ouest : Data MII capteur MICROCAT
DateTime_Computer,Latitude,Longitude,Temperature,Conductivity,Pressure,DateTime_Instrument
DateTime_Computer,Latitude,Longitude,degC,S m-1,dbar,DateTime_Instrument
2019-05-22T00:01:27Z,42.805,6.029,13.2951,4.59964,2469.667,2019-5-22T02:01:42Z
2019-05-22T00:04:30Z,42.805,6.029,13.2951,4.59959,2469.667,2019-5-22T02:04:45Z
2019-05-22T00:07:33Z,42.805,6.029,13.2948,4.59954,2469.68,2019-5-22T02:07:48Z
2019-05-22T00:10:36Z,42.805,6.029,13.2949,4.59955,2469.643,2019-5-22T02:10:51Z
2019-05-22T00:13:39Z,42.805,6.029,13.2951,4.59952,2469.657,2019-5-22T02:13:54Z
2019-05-22T00:16:42Z,42.805,6.029,13.2948,4.59958,2469.667,2019-5-22T02:16:57Z
2019-05-22T00:19:45Z,42.805,6.029,13.2951,4.59953,2469.68,2019-5-22T02:19:59Z
2019-05-22T00:22:48Z,42.805,6.029,13.2949,4.59954,2469.667,2019-5-22T02:23:02Z
2019-05-22T00:25:51Z,42.805,6.029,13.2948,4.59956,2469.643,2019-5-22T02:26:05Z
2019-05-22T00:28:54Z,42.805,6.029,13.2952,4.59961,2469.657,2019-5-22T02:29:08Z
2019-05-22T00:31:57Z,42.805,6.029,13.2948,4.59966,2469.643,2019-5-22T02:32:11Z
2019-05-22T00:35:00Z,42.805,6.029,13.2952,4.59952,2469.667,2019-5-22T02:35:14Z
2019-05-22T00:38:03Z,42.805,6.029,13.2948,4.59956,2469.68,2019-5-22T02:38:17Z
2019-05-22T00:41:06Z,42.805,6.029,13.2950,4.59956,2469.62,2019-5-22T02:41:20Z
2019-05-22T00:44:09Z,42.805,6.029,13.2948,4.59959,2469.657,2019-5-22T02:44:23Z
2019-05-22T00:47:12Z,42.805,6.029,13.2952,4.59955,2469.657,2019-5-22T02:47:26Z
2019-05-22T00:50:15Z,42.805,6.029,13.2950,4.59971,2469.634,2019-5-22T02:50:29Z
2019-05-22T00:53:18Z,42.805,6.029,13.2952,4.59968,2469.634,2019-5-22T02:53:32Z
2019-05-22T00:56:21Z,42.805,6.029,13.2950,4.59964,2469.62,2019-5-22T02:56:35Z
2019-05-22T00:59:24Z,42.805,6.029,13.2950,4.59959,2469.68,2019-5-22T02:59:38Z
2019-05-22T01:02:26Z,42.805,6.029,13.2952,4.59961,2469.62,2019-5-22T03:02:41Z
2019-05-22T01:05:29Z,42.805,6.029,13.2948,4.59959,2469.657,2019-5-22T03:05:44Z
2019-05-22T01:08:32Z,42.805,6.029,13.2950,4.59970,2469.68,2019-5-22T03:08:47Z
2019-05-22T01:11:35Z,42.805,6.029,13.2949,4.59972,2469.643,2019-5-22T03:11:50Z
2019-05-22T01:14:38Z,42.805,6.029,13.2950,4.59964,2469.643,2019-5-22T03:14:53Z
2019-05-22T01:17:41Z,42.805,6.029,13.2952,4.59968,2469.62,2019-5-22T03:17:56Z
2019-05-22T01:20:44Z,42.805,6.029,13.2953,4.59968,2469.61,2019-5-22T03:20:58Z
2019-05-22T01:23:47Z,42.805,6.029,13.2951,4.59986,2469.597,2019-5-22T03:24:01Z
2019-05-22T01:26:50Z,42.805,6.029,13.2950,4.59968,2469.597,2019-5-22T03:27:04Z
2019-05-22T01:29:53Z,42.805,6.029,13.2947,4.59974,2469.643,2019-5-22T03:30:07Z
2019-05-22T01:32:56Z,42.805,6.029,13.2953,4.59979,2469.583,2019-5-22T03:33:10Z
2019-05-22T01:35:59Z,42.805,6.029,13.2949,4.59971,2469.657,2019-5-22T03:36:13Z
2019-05-22T01:39:02Z,42.805,6.029,13.2948,4.59972,2469.597,2019-5-22T03:39:16Z
2019-05-22T01:42:05Z,42.805,6.029,13.2951,4.59976,2469.61,2019-5-22T03:42:19Z
2019-05-22T01:45:08Z,42.805,6.029,13.2950,4.59973,2469.61,2019-5-22T03:45:22Z
2019-05-22T01:48:11Z,42.805,6.029,13.2952,4.59978,2469.61,2019-5-22T03:48:25Z
2019-05-22T01:51:14Z,42.805,6.029,13.2952,4.59972,2469.61,2019-5-22T03:51:28Z
2019-05-22T01:54:17Z,42.805,6.029,13.2950,4.59969,2469.61,2019-5-22T03:54:31Z
2019-05-22T01:57:20Z,42.805,6.029,13.2953,4.59974,2469.597,2019-5-22T03:57:34Z
2019-05-22T02:00:22Z,42.805,6.029,13.2955,4.59969,2469.55,2019-5-22T04:00:37Z
2019-05-22T02:03:25Z,42.805,6.029,13.2952,4.59981,2469.634,2019-5-22T04:03:40Z
2019-05-22T02:06:28Z,42.805,6.029,13.2952,4.60002,2469.587,2019-5-22T04:06:43Z
2019-05-22T02:09:31Z,42.805,6.029,13.2948,4.60024,2469.61,2019-5-22T04:09:46Z
2019-05-22T02:12:34Z,42.805,6.029,13.2949,4.59976,2469.573,2019-5-22T04:12:49Z
2019-05-22T02:15:37Z,42.805,6.029,13.2948,4.59981,2469.62,2019-5-22T04:15:52Z
2019-05-22T02:18:40Z,42.805,6.029,13.2947,4.59980,2469.597,2019-5-22T04:18:54Z
2019-05-22T02:21:43Z,42.805,6.029,13.2948,4.59996,2469.597,2019-5-22T04:21:57Z
2019-05-22T02:24:46Z,42.805,6.029,13.2960,4.60010,2469.597,2019-5-22T04:25:00Z
2019-05-22T02:27:49Z,42.805,6.029,13.3017,4.60009,2469.597,2019-5-22T04:28:03Z
2019-05-22T02:30:52Z,42.805,6.029,13.3011,4.60009,2469.55,2019-5-22T04:31:06Z
2019-05-22T02:33:55Z,42.805,6.029,13.3004,4.60003,2469.587,2019-5-22T04:34:09Z
2019-05-22T02:36:58Z,42.805,6.029,13.3021,4.60004,2469.61,2019-5-22T04:37:12Z
2019-05-22T02:40:01Z,42.805,6.029,13.2983,4.60021,2469.587,2019-5-22T04:40:15Z
2019-05-22T02:43:04Z,42.805,6.029,13.2989,4.60007,2469.563,2019-5-22T04:43:18Z
2019-05-22T02:46:07Z,42.805,6.029,13.2954,4.60013,2469.587,2019-5-22T04:46:21Z
2019-05-22T02:49:10Z,42.805,6.029,13.2951,4.60009,2469.563,2019-5-22T04:49:24Z
2019-05-22T02:52:13Z,42.805,6.029,13.2957,4.60044,2469.563,2019-5-22T04:52:27Z
2019-05-22T02:55:16Z,42.805,6.029,13.2952,4.59985,2469.55,2019-5-22T04:55:30Z
2019-05-22T02:58:18Z,42.805,6.029,13.2951,4.59993,2469.573,2019-5-22T04:58:33Z
2019-05-22T03:01:21Z,42.805,6.029,13.2951,4.59988,2469.587,2019-5-22T05:01:36Z
2019-05-22T03:04:24Z,42.805,6.029,13.2955,4.59972,2469.55,2019-5-22T05:04:39Z
2019-05-22T03:07:27Z,42.805,6.029,13.2954,4.59981,2469.61,2019-5-22T05:07:42Z
2019-05-22T03:10:30Z,42.805,6.029,13.2966,4.60014,2469.563,2019-5-22T05:10:45Z
2019-05-22T03:13:33Z,42.805,6.029,13.2950,4.60004,2469.573,2019-5-22T05:13:48Z
2019-05-22T03:16:36Z,42.805,6.029,13.2954,4.60001,2469.61,2019-5-22T05:16:50Z
2019-05-22T03:19:39Z,42.805,6.029,13.3009,4.59995,2469.573,2019-5-22T05:19:53Z
2019-05-22T03:22:42Z,42.805,6.029,13.3009,4.59996,2469.587,2019-5-22T05:22:56Z
2019-05-22T03:25:45Z,42.805,6.029,13.3024,4.60010,2469.587,2019-5-22T05:25:59Z
2019-05-22T03:28:48Z,42.805,6.029,13.3006,4.60000,2469.55,2019-5-22T05:29:02Z
2019-05-22T03:31:51Z,42.805,6.029,13.2977,4.59986,2469.517,2019-5-22T05:32:05Z
2019-05-22T03:34:54Z,42.805,6.029,13.3000,4.59996,2469.587,2019-5-22T05:35:08Z
2019-05-22T03:37:57Z,42.805,6.029,13.3030,4.60015,2469.526,2019-5-22T05:38:11Z
2019-05-22T03:41:00Z,42.805,6.029,13.2999,4.60006,2469.577,2019-5-22T05:41:14Z
2019-05-22T03:44:03Z,42.805,6.029,13.2994,4.59994,2469.563,2019-5-22T05:44:17Z
2019-05-22T03:47:06Z,42.805,6.029,13.2988,4.59988,2469.573,2019-5-22T05:47:20Z
2019-05-22T03:50:09Z,42.805,6.029,13.2995,4.59985,2469.55,2019-5-22T05:50:23Z
2019-05-22T03:53:12Z,42.805,6.029,13.2990,4.60002,2469.563,2019-5-22T05:53:26Z
2019-05-22T03:56:14Z,42.805,6.029,13.3000,4.59986,2469.54,2019-5-22T05:56:29Z
2019-05-22T03:59:17Z,42.805,6.029,13.3021,4.59987,2469.54,2019-5-22T05:59:32Z
2019-05-22T04:02:20Z,42.805,6.029,13.2997,4.59997,2469.563,2019-5-22T06:02:35Z
2019-05-22T04:05:23Z,42.805,6.029,13.2991,4.59989,2469.563,2019-5-22T06:05:38Z
2019-05-22T04:08:26Z,42.805,6.029,13.2990,4.59986,2469.563,2019-5-22T06:08:41Z
2019-05-22T04:11:29Z,42.805,6.029,13.2986,4.59990,2469.587,2019-5-22T06:11:44Z
2019-05-22T04:14:32Z,42.805,6.029,13.2990,4.59997,2469.54,2019-5-22T06:14:46Z
2019-05-22T04:17:35Z,42.805,6.029,13.2995,4.60000,2469.54,2019-5-22T06:17:49Z
2019-05-22T04:20:38Z,42.805,6.029,13.2983,4.59989,2469.526,2019-5-22T06:20:52Z
2019-05-22T04:23:41Z,42.805,6.029,13.2999,4.59987,2469.563,2019-5-22T06:23:55Z
2019-05-22T04:26:44Z,42.805,6.029,13.2983,4.60001,2469.503,2019-5-22T06:26:58Z
2019-05-22T04:29:47Z,42.805,6.029,13.3002,4.59991,2469.526,2019-5-22T06:30:01Z
2019-05-22T04:32:50Z,42.805,6.029,13.2974,4.59991,2469.563,2019-5-22T06:33:04Z
2019-05-22T04:35:53Z,42.805,6.029,13.2971,4.60016,2469.587,2019-5-22T06:36:07Z
2019-05-22T04:38:56Z,42.805,6.029,13.2958,4.60003,2469.526,2019-5-22T06:39:10Z
2019-05-22T04:41:59Z,42.805,6.029,13.2968,4.59994,2469.563,2019-5-22T06:42:13Z
2019-05-22T04:45:02Z,42.805,6.029,13.2960,4.59986,2469.587,2019-5-22T06:45:16Z
2019-05-22T04:48:05Z,42.805,6.029,13.2953,4.59984,2469.587,2019-5-22T06:48:19Z
2019-05-22T04:51:08Z,42.805,6.029,13.2946,4.59977,2469.526,2019-5-22T06:51:22Z
2019-05-22T04:54:11Z,42.805,6.029,13.2948,4.59973,2469.55,2019-5-22T06:54:25Z
2019-05-22T04:57:13Z,42.805,6.029,13.2956,4.59979,2469.54,2019-5-22T06:57:28Z
2019-05-22T05:00:16Z,42.805,6.029,13.2960,4.59990,2469.55,2019-5-22T07:00:31Z
2019-05-22T05:03:19Z,42.805,6.029,13.2958,4.59986,2469.587,2019-5-22T07:03:34Z
2019-05-22T05:06:22Z,42.805,6.029,13.2958,4.59981,2469.526,2019-5-22T07:06:37Z
2019-05-22T05:09:25Z,42.805,6.029,13.2987,4.59976,2469.563,2019-5-22T07:09:40Z
2019-05-22T05:12:28Z,42.805,6.029,13.2996,4.59996,2469.563,2019-5-22T07:12:43Z
2019-05-22T05:15:31Z,42.805,6.029,13.2996,4.60011,2469.55,2019-5-22T07:15:45Z
2019-05-22T05:18:34Z,42.805,6.029,13.2957,4.59999,2469.54,2019-5-22T07:18:48Z
2019-05-22T05:21:37Z,42.805,6.029,13.2973,4.59996,2469.563,2019-5-22T07:21:51Z
2019-05-22T05:24:40Z,42.805,6.029,13.2961,4.59980,2469.55,2019-5-22T07:24:54Z
2019-05-22T05:27:43Z,42.805,6.029,13.2983,4.59995,2469.563,2019-5-22T07:27:57Z
2019-05-22T05:30:46Z,42.805,6.029,13.2990,4.60015,2469.563,2019-5-22T07:31:00Z
2019-05-22T05:33:49Z,42.805,6.029,13.2963,4.59996,2469.55,2019-5-22T07:34:03Z
2019-05-22T05:36:52Z,42.805,6.029,13.2989,4.59996,2469.62,2019-5-22T07:37:06Z
2019-05-22T05:39:55Z,42.805,6.029,13.2974,4.60019,2469.587,2019-5-22T07:40:09Z
2019-05-22T05:42:58Z,42.805,6.029,13.2972,4.60006,2469.54,2019-5-22T07:43:12Z
2019-05-22T05:46:01Z,42.805,6.029,13.2959,4.59993,2469.54,2019-5-22T07:46:15Z
2019-05-22T05:49:04Z,42.805,6.029,13.2953,4.59990,2469.563,2019-5-22T07:49:18Z
2019-05-22T05:52:07Z,42.805,6.029,13.2961,4.59991,2469.55,2019-5-22T07:52:21Z
2019-05-22T05:55:09Z,42.805,6.029,13.2952,4.59991,2469.563,2019-5-22T07:55:24Z
2019-05-22T05:58:12Z,42.805,6.029,13.2948,4.59991,2469.563,2019-5-22T07:58:27Z
2019-05-22T06:01:15Z,42.805,6.029,13.2953,4.59980,2469.587,2019-5-22T08:01:30Z
2019-05-22T06:04:18Z,42.805,6.029,13.2953,4.59973,2469.55,2019-5-22T08:04:33Z
2019-05-22T06:07:21Z,42.805,6.029,13.2954,4.59971,2469.563,2019-5-22T08:07:36Z
2019-05-22T06:10:24Z,42.805,6.029,13.2952,4.59970,2469.573,2019-5-22T08:10:39Z
2019-05-22T06:13:27Z,42.805,6.029,13.2955,4.59971,2469.61,2019-5-22T08:13:41Z
2019-05-22T06:16:30Z,42.805,6.029,13.2994,4.59968,2469.61,2019-5-22T08:16:44Z
2019-05-22T06:19:33Z,42.805,6.029,13.2978,4.59995,2469.587,2019-5-22T08:19:47Z
2019-05-22T06:22:36Z,42.805,6.029,13.2952,4.59988,2469.61,2019-5-22T08:22:50Z
2019-05-22T06:25:39Z,42.805,6.029,13.2949,4.59976,2469.597,2019-5-22T08:25:53Z
2019-05-22T06:28:42Z,42.805,6.029,13.3004,4.59982,2469.587,2019-5-22T08:28:56Z
2019-05-22T06:31:45Z,42.805,6.029,13.2986,4.59996,2469.587,2019-5-22T08:31:59Z
2019-05-22T06:34:48Z,42.805,6.029,13.2957,4.60009,2469.563,2019-5-22T08:35:02Z
2019-05-22T06:37:51Z,42.805,6.029,13.2978,4.59975,2469.587,2019-5-22T08:38:05Z
2019-05-22T06:40:54Z,42.805,6.029,13.2965,4.59978,2469.634,2019-5-22T08:41:08Z
2019-05-22T06:43:57Z,42.805,6.029,13.2953,4.59979,2469.587,2019-5-22T08:44:11Z
2019-05-22T06:47:00Z,42.805,6.029,13.2949,4.59968,2469.634,2019-5-22T08:47:14Z
2019-05-22T06:50:03Z,42.805,6.029,13.2951,4.59966,2469.61,2019-5-22T08:50:17Z
2019-05-22T06:53:06Z,42.805,6.029,13.2952,4.59968,2469.597,2019-5-22T08:53:20Z
2019-05-22T06:56:08Z,42.805,6.029,13.2951,4.59970,2469.634,2019-5-22T08:56:23Z
2019-05-22T06:59:11Z,42.805,6.029,13.2950,4.59966,2469.643,2019-5-22T08:59:26Z
2019-05-22T07:02:14Z,42.805,6.029,13.2953,4.59961,2469.61,2019-5-22T09:02:29Z
2019-05-22T07:05:17Z,42.805,6.029,13.2952,4.59970,2469.634,2019-5-22T09:05:32Z
2019-05-22T07:08:20Z,42.805,6.029,13.2950,4.59968,2469.587,2019-5-22T09:08:35Z
2019-05-22T07:11:23Z,42.805,6.029,13.2953,4.59966,2469.634,2019-5-22T09:11:37Z
2019-05-22T07:14:26Z,42.805,6.029,13.2952,4.59964,2469.634,2019-5-22T09:14:40Z
2019-05-22T07:17:29Z,42.805,6.029,13.2952,4.59961,2469.61,2019-5-22T09:17:43Z
2019-05-22T07:20:32Z,42.805,6.029,13.2950,4.59961,2469.634,2019-5-22T09:20:46Z
2019-05-22T07:23:35Z,42.805,6.029,13.2954,4.59958,2469.657,2019-5-22T09:23:49Z
2019-05-22T07:26:38Z,42.805,6.029,13.2952,4.59966,2469.62,2019-5-22T09:26:52Z
2019-05-22T07:29:41Z,42.805,6.029,13.2949,4.59966,2469.62,2019-5-22T09:29:55Z
2019-05-22T07:32:44Z,42.805,6.029,13.2953,4.59955,2469.62,2019-5-22T09:32:58Z
2019-05-22T07:35:47Z,42.805,6.029,13.2952,4.59956,2469.634,2019-5-22T09:36:01Z
2019-05-22T07:38:50Z,42.805,6.029,13.2950,4.59960,2469.634,2019-5-22T09:39:04Z
2019-05-22T07:41:53Z,42.805,6.029,13.2951,4.59963,2469.643,2019-5-22T09:42:07Z
2019-05-22T07:44:56Z,42.805,6.029,13.2948,4.59966,2469.634,2019-5-22T09:45:10Z
2019-05-22T07:47:59Z,42.805,6.029,13.2953,4.59966,2469.634,2019-5-22T09:48:13Z
2019-05-22T07:51:02Z,42.805,6.029,13.2952,4.59960,2469.657,2019-5-22T09:51:16Z
2019-05-22T07:54:04Z,42.805,6.029,13.2949,4.59958,2469.643,2019-5-22T09:54:19Z
2019-05-22T07:57:07Z,42.805,6.029,13.2953,4.59956,2469.634,2019-5-22T09:57:22Z
2019-05-22T08:00:10Z,42.805,6.029,13.2952,4.59960,2469.657,2019-5-22T10:00:25Z
2019-05-22T08:03:13Z,42.805,6.029,13.2949,4.59958,2469.643,2019-5-22T10:03:28Z
2019-05-22T08:06:16Z,42.805,6.029,13.2948,4.59959,2469.657,2019-5-22T10:06:31Z
2019-05-22T08:09:19Z,42.805,6.029,13.2947,4.59961,2469.62,2019-5-22T10:09:34Z
2019-05-22T08:12:22Z,42.805,6.029,13.2952,4.59963,2469.643,2019-5-22T10:12:37Z
2019-05-22T08:15:25Z,42.805,6.029,13.2952,4.59958,2469.643,2019-5-22T10:15:39Z
2019-05-22T08:18:28Z,42.805,6.029,13.2947,4.59953,2469.68,2019-5-22T10:18:42Z
2019-05-22T08:21:31Z,42.805,6.029,13.2948,4.59956,2469.634,2019-5-22T10:21:45Z
2019-05-22T08:24:34Z,42.805,6.029,13.2950,4.59954,2469.657,2019-5-22T10:24:48Z
2019-05-22T08:27:37Z,42.805,6.029,13.2953,4.59957,2469.657,2019-5-22T10:27:51Z
2019-05-22T08:30:40Z,42.805,6.029,13.2948,4.59955,2469.62,2019-5-22T10:30:54Z
2019-05-22T08:33:43Z,42.805,6.029,13.2949,4.59956,2469.69,2019-5-22T10:33:57Z
2019-05-22T08:36:46Z,42.805,6.029,13.2950,4.59956,2469.657,2019-5-22T10:37:00Z
2019-05-22T08:39:49Z,42.805,6.029,13.2949,4.59957,2469.657,2019-5-22T10:40:03Z
2019-05-22T08:42:52Z,42.805,6.029,13.2953,4.59958,2469.643,2019-5-22T10:43:06Z
2019-05-22T08:45:55Z,42.805,6.029,13.2950,4.59954,2469.643,2019-5-22T10:46:09Z
2019-05-22T08:48:58Z,42.805,6.029,13.2948,4.59963,2469.62,2019-5-22T10:49:12Z
2019-05-22T08:52:01Z,42.805,6.029,13.2952,4.59960,2469.657,2019-5-22T10:52:15Z
2019-05-22T08:55:04Z,42.805,6.029,13.2953,4.59961,2469.643,2019-5-22T10:55:18Z
2019-05-22T08:58:06Z,42.805,6.029,13.2947,4.59958,2469.62,2019-5-22T10:58:21Z
2019-05-22T09:01:09Z,42.805,6.029,13.2953,4.59957,2469.629,2019-5-22T11:01:24Z
2019-05-22T09:04:12Z,42.805,6.029,13.2953,4.59964,2469.643,2019-5-22T11:04:27Z
2019-05-22T09:07:15Z,42.805,6.029,13.2954,4.59954,2469.68,2019-5-22T11:07:30Z
2019-05-22T09:10:18Z,42.805,6.029,13.2952,4.59955,2469.667,2019-5-22T11:10:33Z
2019-05-22T09:13:21Z,42.805,6.029,13.2949,4.59956,2469.657,2019-5-22T11:13:36Z
2019-05-22T09:16:24Z,42.805,6.029,13.2956,4.59957,2469.657,2019-5-22T11:16:39Z
2019-05-22T09:19:27Z,42.805,6.029,13.2950,4.59958,2469.657,2019-5-22T11:19:41Z
2019-05-22T09:22:30Z,42.805,6.029,13.2950,4.59959,2469.643,2019-5-22T11:22:44Z
2019-05-22T09:25:33Z,42.805,6.029,13.2951,4.59956,2469.643,2019-5-22T11:25:47Z
2019-05-22T09:28:36Z,42.805,6.029,13.2952,4.59957,2469.634,2019-5-22T11:28:50Z
2019-05-22T09:31:39Z,42.805,6.029,13.2952,4.59956,2469.671,2019-5-22T11:31:53Z
2019-05-22T09:34:42Z,42.805,6.029,13.2952,4.59957,2469.634,2019-5-22T11:34:56Z
2019-05-22T09:37:45Z,42.805,6.029,13.2948,4.59956,2469.634,2019-5-22T11:37:59Z
2019-05-22T09:40:48Z,42.805,6.029,13.2950,4.59953,2469.657,2019-5-22T11:41:02Z
2019-05-22T09:43:51Z,42.805,6.029,13.2953,4.59954,2469.667,2019-5-22T11:44:05Z
2019-05-22T09:46:54Z,42.805,6.029,13.2950,4.59955,2469.643,2019-5-22T11:47:08Z
2019-05-22T09:49:57Z,42.805,6.029,13.2948,4.59955,2469.643,2019-5-22T11:50:11Z
2019-05-22T09:53:00Z,42.805,6.029,13.2951,4.59956,2469.634,2019-5-22T11:53:14Z
2019-05-22T09:56:03Z,42.805,6.029,13.2948,4.59954,2469.657,2019-5-22T11:56:17Z
2019-05-22T09:59:06Z,42.805,6.029,13.2950,4.59956,2469.643,2019-5-22T11:59:20Z
2019-05-22T10:02:08Z,42.805,6.029,13.2953,4.59956,2469.62,2019-5-22T12:02:23Z
2019-05-22T10:05:11Z,42.805,6.029,13.2951,4.59961,2469.667,2019-5-22T12:05:26Z
2019-05-22T10:08:14Z,42.805,6.029,13.2953,4.59961,2469.634,2019-5-22T12:08:29Z
2019-05-22T10:11:17Z,42.805,6.029,13.2950,4.59956,2469.597,2019-5-22T12:11:32Z
2019-05-22T10:14:20Z,42.805,6.029,13.2953,4.59959,2469.657,2019-5-22T12:14:35Z
2019-05-22T10:17:23Z,42.805,6.029,13.2952,4.59955,2469.573,2019-5-22T12:17:38Z
2019-05-22T10:20:26Z,42.805,6.029,13.2949,4.59955,2469.597,2019-5-22T12:20:41Z
2019-05-22T10:23:29Z,42.805,6.029,13.2949,4.59953,2469.634,2019-5-22T12:23:43Z
2019-05-22T10:26:32Z,42.805,6.029,13.2950,4.59954,2469.61,2019-5-22T12:26:46Z
2019-05-22T10:29:35Z,42.805,6.029,13.2952,4.59954,2469.62,2019-5-22T12:29:49Z
2019-05-22T10:32:38Z,42.805,6.029,13.2948,4.59954,2469.61,2019-5-22T12:32:52Z
2019-05-22T10:35:41Z,42.805,6.029,13.2951,4.59954,2469.657,2019-5-22T12:35:55Z
2019-05-22T10:38:44Z,42.805,6.029,13.2950,4.59955,2469.634,2019-5-22T12:38:58Z
2019-05-22T10:41:47Z,42.805,6.029,13.2950,4.59953,2469.597,2019-5-22T12:42:01Z
2019-05-22T10:44:50Z,42.805,6.029,13.2952,4.59951,2469.61,2019-5-22T12:45:04Z
2019-05-22T10:47:53Z,42.805,6.029,13.2952,4.59951,2469.61,2019-5-22T12:48:07Z
2019-05-22T10:50:56Z,42.805,6.029,13.2951,4.59953,2469.587,2019-5-22T12:51:10Z
2019-05-22T10:53:59Z,42.805,6.029,13.2948,4.59954,2469.61,2019-5-22T12:54:13Z
2019-05-22T10:57:02Z,42.805,6.029,13.2948,4.59951,2469.61,2019-5-22T12:57:16Z
2019-05-22T11:00:05Z,42.805,6.029,13.2952,4.59951,2469.597,2019-5-22T13:00:19Z
2019-05-22T11:03:08Z,42.805,6.029,13.2948,4.59951,2469.55,2019-5-22T13:03:22Z
2019-05-22T11:06:11Z,42.805,6.029,13.2946,4.59952,2469.55,2019-5-22T13:06:25Z
2019-05-22T11:09:13Z,42.805,6.029,13.2949,4.59956,2469.573,2019-5-22T13:09:28Z
2019-05-22T11:12:16Z,42.805,6.029,13.2949,4.59954,2469.587,2019-5-22T13:12:31Z
2019-05-22T11:15:19Z,42.805,6.029,13.2948,4.59952,2469.597,2019-5-22T13:15:34Z
2019-05-22T11:18:22Z,42.805,6.029,13.2949,4.59956,2469.573,2019-5-22T13:18:37Z
2019-05-22T11:21:25Z,42.805,6.029,13.2951,4.59953,2469.573,2019-5-22T13:21:40Z
2019-05-22T11:24:28Z,42.805,6.029,13.2952,4.59953,2469.61,2019-5-22T13:24:43Z
2019-05-22T11:27:31Z,42.805,6.029,13.2952,4.59954,2469.54,2019-5-22T13:27:46Z
2019-05-22T11:30:34Z,42.805,6.029,13.2948,4.59953,2469.61,2019-5-22T13:30:49Z
2019-05-22T11:33:37Z,42.805,6.029,13.2953,4.59954,2469.55,2019-5-22T13:33:51Z
2019-05-22T11:36:40Z,42.805,6.029,13.2951,4.59953,2469.563,2019-5-22T13:36:54Z
2019-05-22T11:39:43Z,42.805,6.029,13.2949,4.59958,2469.587,2019-5-22T13:39:57Z
2019-05-22T11:42:46Z,42.805,6.029,13.2951,4.59954,2469.54,2019-5-22T13:43:00Z
2019-05-22T11:45:49Z,42.805,6.029,13.2951,4.59956,2469.61,2019-5-22T13:46:03Z
2019-05-22T11:48:52Z,42.805,6.029,13.2950,4.59951,2469.573,2019-5-22T13:49:06Z
2019-05-22T11:51:55Z,42.805,6.029,13.2951,4.59953,2469.587,2019-5-22T13:52:09Z
2019-05-22T11:54:58Z,42.805,6.029,13.2949,4.59955,2469.563,2019-5-22T13:55:12Z
2019-05-22T11:58:01Z,42.805,6.029,13.2951,4.59954,2469.54,2019-5-22T13:58:15Z
2019-05-22T12:01:04Z,42.805,6.029,13.2949,4.59955,2469.55,2019-5-22T14:01:18Z
2019-05-22T12:04:07Z,42.805,6.029,13.2951,4.59954,2469.573,2019-5-22T14:04:21Z
2019-05-22T12:07:10Z,42.805,6.029,13.2947,4.59954,2469.573,2019-5-22T14:07:24Z
2019-05-22T12:10:13Z,42.805,6.029,13.2953,4.59953,2469.573,2019-5-22T14:10:27Z
2019-05-22T12:13:16Z,42.805,6.029,13.2952,4.59955,2469.573,2019-5-22T14:13:30Z
2019-05-22T12:16:18Z,42.805,6.029,13.2953,4.59951,2469.55,2019-5-22T14:16:33Z
2019-05-22T12:19:21Z,42.805,6.029,13.2952,4.59956,2469.563,2019-5-22T14:19:36Z
2019-05-22T12:22:24Z,42.805,6.029,13.2952,4.59954,2469.587,2019-5-22T14:22:39Z
2019-05-22T12:25:27Z,42.805,6.029,13.2951,4.59955,2469.55,2019-5-22T14:25:42Z
2019-05-22T12:28:30Z,42.805,6.029,13.2948,4.59954,2469.55,2019-5-22T14:28:45Z
2019-05-22T12:31:33Z,42.805,6.029,13.2950,4.59953,2469.55,2019-5-22T14:31:48Z
2019-05-22T12:34:36Z,42.805,6.029,13.2950,4.59952,2469.587,2019-5-22T14:34:51Z
2019-05-22T12:37:39Z,42.805,6.029,13.2944,4.59953,2469.526,2019-5-22T14:37:53Z
2019-05-22T12:40:42Z,42.805,6.029,13.2948,4.59957,2469.526,2019-5-22T14:40:56Z
2019-05-22T12:43:45Z,42.805,6.029,13.2945,4.59953,2469.563,2019-5-22T14:43:59Z
2019-05-22T12:46:48Z,42.805,6.029,13.2949,4.59951,2469.55,2019-5-22T14:47:02Z
2019-05-22T12:49:51Z,42.805,6.029,13.2951,4.59951,2469.55,2019-5-22T14:50:05Z
2019-05-22T12:52:54Z,42.805,6.029,13.2952,4.59952,2469.526,2019-5-22T14:53:08Z
2019-05-22T12:55:57Z,42.805,6.029,13.2949,4.59955,2469.563,2019-5-22T14:56:11Z
2019-05-22T12:59:00Z,42.805,6.029,13.2951,4.59952,2469.55,2019-5-22T14:59:14Z
2019-05-22T13:02:03Z,42.805,6.029,13.2948,4.59953,2469.54,2019-5-22T15:02:17Z
2019-05-22T13:05:06Z,42.805,6.029,13.2952,4.59953,2469.526,2019-5-22T15:05:20Z
2019-05-22T13:08:09Z,42.805,6.029,13.2952,4.59953,2469.54,2019-5-22T15:08:23Z
2019-05-22T13:11:12Z,42.805,6.029,13.2950,4.59952,2469.517,2019-5-22T15:11:26Z
2019-05-22T13:14:15Z,42.805,6.029,13.2949,4.59953,2469.526,2019-5-22T15:14:29Z
2019-05-22T13:17:18Z,42.805,6.029,13.2950,4.59953,2469.563,2019-5-22T15:17:32Z
2019-05-22T13:20:20Z,42.805,6.029,13.2951,4.59956,2469.55,2019-5-22T15:20:35Z
2019-05-22T13:23:23Z,42.805,6.029,13.2952,4.59954,2469.54,2019-5-22T15:23:38Z
2019-05-22T13:26:26Z,42.805,6.029,13.2950,4.59953,2469.503,2019-5-22T15:26:41Z
2019-05-22T13:29:29Z,42.805,6.029,13.2951,4.59953,2469.54,2019-5-22T15:29:44Z
2019-05-22T13:32:32Z,42.805,6.029,13.2952,4.59954,2469.526,2019-5-22T15:32:47Z
2019-05-22T13:35:35Z,42.805,6.029,13.2952,4.59958,2469.526,2019-5-22T15:35:50Z
2019-05-22T13:38:38Z,42.805,6.029,13.2951,4.59956,2469.517,2019-5-22T15:38:53Z
2019-05-22T13:41:41Z,42.805,6.029,13.2952,4.59953,2469.526,2019-5-22T15:41:56Z
2019-05-22T13:44:44Z,42.805,6.029,13.2952,4.59954,2469.503,2019-5-22T15:44:58Z
2019-05-22T13:47:47Z,42.805,6.029,13.2950,4.59956,2469.563,2019-5-22T15:48:01Z
2019-05-22T13:50:50Z,42.805,6.029,13.2949,4.59956,2469.517,2019-5-22T15:51:04Z
2019-05-22T13:53:53Z,42.805,6.029,13.2950,4.59956,2469.503,2019-5-22T15:54:07Z
2019-05-22T13:56:56Z,42.805,6.029,13.2951,4.59956,2469.54,2019-5-22T15:57:10Z
2019-05-22T13:59:59Z,42.805,6.029,13.2952,4.59956,2469.503,2019-5-22T16:00:13Z
2019-05-22T14:03:02Z,42.805,6.029,13.2950,4.59959,2469.54,2019-5-22T16:03:16Z
2019-05-22T14:06:05Z,42.805,6.029,13.2951,4.59952,2469.517,2019-5-22T16:06:19Z
2019-05-22T14:09:08Z,42.805,6.029,13.2951,4.59953,2469.54,2019-5-22T16:09:22Z
2019-05-22T14:12:11Z,42.805,6.029,13.2953,4.59952,2469.48,2019-5-22T16:12:25Z
2019-05-22T14:15:14Z,42.805,6.029,13.2951,4.59955,2469.526,2019-5-22T16:15:28Z
2019-05-22T14:18:17Z,42.805,6.029,13.2952,4.59954,2469.503,2019-5-22T16:18:31Z
2019-05-22T14:21:20Z,42.805,6.029,13.2952,4.59955,2469.503,2019-5-22T16:21:34Z
2019-05-22T14:24:23Z,42.805,6.029,13.2952,4.59956,2469.517,2019-5-22T16:24:37Z
2019-05-22T14:27:25Z,42.805,6.029,13.2951,4.59957,2469.503,2019-5-22T16:27:40Z
2019-05-22T14:30:28Z,42.805,6.029,13.2952,4.59954,2469.503,2019-5-22T16:30:43Z
2019-05-22T14:33:31Z,42.805,6.029,13.2953,4.59955,2469.526,2019-5-22T16:33:46Z
2019-05-22T14:36:34Z,42.805,6.029,13.2952,4.59955,2469.494,2019-5-22T16:36:49Z
2019-05-22T14:39:37Z,42.805,6.029,13.2948,4.59956,2469.54,2019-5-22T16:39:52Z
2019-05-22T14:42:40Z,42.805,6.029,13.2953,4.59957,2469.517,2019-5-22T16:42:55Z
2019-05-22T14:45:43Z,42.805,6.029,13.2949,4.59955,2469.526,2019-5-22T16:45:58Z
2019-05-22T14:48:46Z,42.805,6.029,13.2950,4.59956,2469.517,2019-5-22T16:49:00Z
2019-05-22T14:51:49Z,42.805,6.029,13.2948,4.59959,2469.517,2019-5-22T16:52:03Z
2019-05-22T14:54:52Z,42.805,6.029,13.2951,4.59958,2469.54,2019-5-22T16:55:06Z
2019-05-22T14:57:55Z,42.805,6.029,13.2952,4.59957,2469.54,2019-5-22T16:58:09Z
2019-05-22T15:00:58Z,42.805,6.029,13.2953,4.59956,2469.503,2019-5-22T17:01:12Z
2019-05-22T15:04:01Z,42.805,6.029,13.2951,4.59953,2469.526,2019-5-22T17:04:15Z
2019-05-22T15:07:04Z,42.805,6.029,13.2951,4.59954,2469.517,2019-5-22T17:07:18Z
2019-05-22T15:10:07Z,42.805,6.029,13.2952,4.59961,2469.517,2019-5-22T17:10:21Z
2019-05-22T15:13:10Z,42.805,6.029,13.2952,4.59954,2469.503,2019-5-22T17:13:24Z